Regional Weather Roundup
Issued by NWS State College, PA

Home | Current Version | Previous Version | Graphics & Text | Print | Product List | Glossary Off
Versions: 1 2 3 4 5 6 7 8 9 10 11 12 13 14 15 16 17 18 19 20 21 22 23 24 25 26 27 28 29 30 31 32 33 34 35 36 37 38 39 40 41 42 43 44 45 46 47 48 49 50

260
ASUS41 KCTP 301710
RWRCTP

REGIONAL WEATHER ROUNDUP
NATIONAL WEATHER SERVICE STATE COLLEGE PA
100 PM EDT TUE AUG 30 2016

Note: "fair" indicates few or no clouds below 12,000 feet with no
significant weather and/or obstructions to visibility.

* = STATION THAT DOES NOT REPORT PRECIPITATION /E.G. RAIN...SNOW...ETC/
    THUNDER OR FOG.

PAZ002>004-007>009-013>016-020>023-029>032-301800-
WESTERN PENNSYLVANIA

CITY           SKY/WX    TMP DP  RH WIND       PRES   REMARKS
ERIE           SUNNY     80  61  52 NW7       30.15F
MEADVILLE      SUNNY     77  56  48 CALM      30.18F
FRANKLIN*        N/A     79  54  41 E5        30.19F
NEW CASTLE     FAIR      81  55  40 VRB3      30.18F
BEAVER COUNTY  SUNNY     82  54  36 CALM      30.18F
BUTLER*        NOT AVBL
PITTSBURGH INT MOSUNNY   81  51  35 VRB5      30.17F
PITTSBURGH     SUNNY     81  56  42 CALM      30.17S
INDIANA*       SUNNY     79  57  47 SW3       30.21S
LATROBE        SUNNY     79  64  61 CALM      30.18F
WASHINGTON CO* SUNNY     82  52  34 N5        30.18F
$$

PAZ004>006-010>012-017>019-024>028-033>037-041-042-045-046-049>053-301800-
CENTRAL PENNSYLVANIA

CITY           SKY/WX    TMP DP  RH WIND       PRES   REMARKS
BRADFORD       SUNNY     75  55  49 VRB3      30.20F
DUBOIS         SUNNY     78  55  44 N5        30.19F
CLEARFIELD     NOT AVBL
JOHNSTOWN      SUNNY     76  58  53 SW8       30.21F
ALTOONA        MOSUNNY   79  61  53 VRB5      30.19F
STATE COLLEGE  MOSUNNY   77  63  61 CALM      30.19S
WILLIAMSPORT   MOSUNNY   80  58  46 SW3       30.14F
SELINSGROVE    SUNNY     81  62  52 VRB3      30.15F
FT INDIANTOWN  SUNNY     81  60  48 VRB1      30.15F
CAPITAL CITY   SUNNY     83  58  42 VRB5      30.14F
HARRISBURG     MOSUNNY   83  63  50 CALM      30.14F
YORK           NOT AVBL
$$

PAZ038>040-043-044-047-048-054-055-060>062-067>071-301800-
EASTERN PENNSYLVANIA

CITY           SKY/WX    TMP DP  RH WIND       PRES   REMARKS
SCRANTON       SUNNY     78  56  46 SW6       30.16F
MOUNT POCONO   MOSUNNY   74  55  51 SW3       30.20F
ALLENTOWN      SUNNY     81  60  48 VRB3      30.14F
QUAKERTOWN*    PTSUNNY   82  61  47 NW6       30.15F
READING        SUNNY     82  56  40 VRB6      30.14F
LANCASTER      SUNNY     84  61  45 VRB6      30.15F
COATESVILLE    MOSUNNY   81  61  50 N5        30.16F
POTTSTOWN      MOSUNNY   83  60  45 VRB3      30.15F
BLUE BELL      PTSUNNY   81  63  54 CALM      30.12F
DOYLESTOWN     MOSUNNY   80  64  58 CALM      30.13F
WILLOW GROVE   NOT AVBL
NORTH PHILA    SUNNY     87  62  43 SE5       30.14F
PHILADELPHIA   MOSUNNY   88  61  40 VRB5      30.12F
$$




USA.gov is the U.S. government's official web portal to all federal, state and local government web resources and services.